[ hide orbit diagram ]
For accurate long-term ephemerides, please instead use our Horizons system.This orbit viewer was implemented using two-body methods, and hence should not be used for determining accurate long-term trajectories (over several years or decades) or planetary encounter circumstances.
Orbital Elements at Epoch 2459000.5 (2020-May-31.0) TDB
Reference: JPL 12 (heliocentric ecliptic J2000)
Element | Value | Uncertainty (1-sigma) | Units |
e | .1405201871762941 | 4.7094e-08 | |
a | 2.312670715014325 | 1.743e-08 | au |
q | 1.987693793263378 | 1.0809e-07 | au |
i | 6.800942735922434 | 6.5284e-06 | deg |
node | 33.63967268516001 | 4.3318e-05 | deg |
peri | 58.21870725278821 | 5.3774e-05 | deg |
M | 68.70175151876745 | 2.7099e-05 | deg |
tp | 2458755.348566565033 (2019-Sep-28.84856657) | 9.6668e-05 | TDB |
period | 1284.603581212618 3.52 | 1.4522e-05 3.976e-08 | d yr |
n | .2802420959002569 | 3.1681e-09 | deg/d |
Q | 2.637647636765271 | 1.9879e-08 | au |
|
| | Orbit Determination Parameters
Additional Information
|
[ show covariance matrix ]
Physical Parameter Table
Parameter |
Symbol |
Value |
Units |
Sigma |
Reference |
Notes |
absolute magnitude |
H |
17.74 |
|
n/a |
E2021B25 |
|
|
359017 (2008 UA296) Discovered 2008-Oct-29 by Spacewatch at Kitt Peak |
Reference: 20130327/Numbers.arc | Last Updated: 2013-03-29 |
|
|